sat.trackr.live / text

‹ back to catalog

STARLINK-35449

NORAD 66459 · 2025-262D

PAYLOAD ACTIVE UNKNOWN

§ Identity

Operator
Country
US
Launch date
2025-11-15
Launch site
AFETR
Launch vehicle
Mass (kg)
RCS (m²)

Purposes: comms

External: N2YO · Heavens-Above · Gunter

§ Orbital elements

Epoch: 2026-05-24T22:06:12.449088Z

Period
94.27 min
Inclination
43.0006°
Eccentricity
0.0001253
Mean motion
15.27586677 rev/d
Perigee alt
482.2 km
Apogee alt
483.9 km
Semi-major
6,861.2 km
B*
7.5041e-4
RAAN
225.7758°
Arg perigee
268.2439°
Mean anomaly
91.8269°
Rev number
3,056

§ Raw data

STARLINK-354491 66459U 25262D   26144.92097742  .00020449  00000+0  75041-3 0  99922 66459  43.0006 225.7758 0001253 268.2439  91.8269 15.27586677 30569

JSON: /api/v1/satellites/66459 · /tle

For live sub-satellite position, see the globe view (requires WebGL).

§ Visibility from observer

Set your observer location to see the next 7 days of passes ≥ 10°. The values pass through the URL so the page stays shareable.

No JS? Fill the form by hand. The geolocation button needs JavaScript.